Regional Weather Roundup
Issued by NWS

Home | Current Version | Previous Version | Text Only | Print | Product List | Glossary Off
Versions: 1 2 3 4 5 6 7 8 9 10 11 12 13 14 15 16 17 18 19 20 21 22 23 24 25 26 27 28 29 30 31 32 33 34 35 36 37 38 39 40 41 42 43 44 45 46 47 48 49 50

000
ASUS45 KSLC 201710
RWRUT

UTAH REGIONAL WEATHER ROUNDUP
NATIONAL WEATHER SERVICE SALT LAKE CITY UT
1100 AM MDT MON OCT 20 2014

UTZ001>011-023>025-201800-

NORTHERN UTAH

CITY           SKY/WX    TMP DP  RH WIND       PRES   REMARKS
BRIGHAM CITY   SUNNY     56  37  48 CALM      30.08S
DUGWAY         MOSUNNY   66  36  32 SE2       30.07S
HILL AFB       SUNNY     60  33  36 E6        30.08S
LOGAN          SUNNY     54  36  50 N5        30.08F
OGDEN          SUNNY     62  36  37 S3        30.06F
PROVO AIRPORT  MOSUNNY   61  37  41 CALM      30.11S
SALT LAKE CITY MOSUNNY   66  38  35 SE10      30.06S
VERNAL         SUNNY     57  36  45 CALM      30.19F
WENDOVER       SUNNY     57  36  44 E6        30.06S
HEBER CITY     MOSUNNY   52  36  54 CALM      30.16F
WEST JORDAN    SUNNY     64  45  48 S14       30.08F

$$

UTZ012>022-026-027-201800-

SOUTHERN/CENTRAL UTAH

CITY           SKY/WX    TMP DP  RH WIND       PRES   REMARKS
BLANDING       SUNNY     61  42  49 SE5       30.30R
BRYCE CANYON   SUNNY     56  36  47 SE12      30.27R
CEDAR CITY     SUNNY     64  40  41 W6        30.12S
DELTA          SUNNY     61  36  38 CALM      30.09F
HANKSVILLE       N/A     59  32  36 CALM      30.18S
MILFORD        SUNNY     61  39  44 S7        30.09F
MOAB/CYNLANDS  MOSUNNY   67  38  34 SE8       30.14S
PRICE          MOSUNNY   62  34  35 SE3       30.20S
ST GEORGE      SUNNY     66  37  34 N5        30.04F
KANAB            N/A     66  39  37 NE13      30.16F

$$

REGIONAL REPORTS     COLORADO/ARIZONA

CITY           SKY/WX    TMP DP  RH WIND       PRES   REMARKS
CRAIG, CO      MOSUNNY   57  38  48 CALM      30.22F
GRAND JUNCTION SUNNY     64  43  46 SE10      30.17S
RIFLE          SUNNY     56  37  49 VRB5      30.21F
MONTROSE       SUNNY     62  38  40 CALM      30.23F
CORTEZ         SUNNY     61  41  47 CALM      30.23F
PAGE, AZ       NOT AVBL
GRAND CANYON   SUNNY     61  39  44 E9        30.21S
KINGMAN        SUNNY     74  45  35 CALM      30.03F
FLAGSTAFF      SUNNY     57  38  48 CALM      30.22S

$$

REGIONAL REPORTS    NEVADA/IDAHO/WYOMING

CITY           SKY/WX    TMP DP  RH WIND       PRES   REMARKS
LAS VEGAS, NV  SUNNY     75  38  26 SW5       29.92S
ELY            SUNNY     65  34  31 S12       30.11F
ELKO           SUNNY     57  30  35 NE5       30.03F
POCATELLO, ID  MOSUNNY   57  37  47 NE5       30.04S
BURLEY         MOSUNNY   58  37  45 E7        29.98S
EVANSTON, WY   NOT AVBL
ROCK SPRINGS   SUNNY     54  32  43 NE3       30.20F
KEMMERER       SUNNY     55  30  38 CALM      30.22S

$$



USA.gov is the U.S. government's official web portal to all federal, state and local government web resources and services.